Time,TemperatureF,DewpointF,PressureIn,WindDirection,WindDirectionDegrees,WindSpeedMPH,WindSpeedGustMPH,Humidity,HourlyPrecipIn,Conditions,Clouds,dailyrainin,SoftwareType,DateUTC
2013-08-25 00:01:00,60.0,56.7,30.37,East,94,0.0,0.0,89,0.00,,,0.00,Wunderground v.1.15,2013-08-25 04:01:00,
2013-08-25 00:02:00,60.0,57.1,30.37,East,94,0.0,0.0,90,0.00,,,0.00,Wunderground v.1.15,2013-08-25 04:02:00,
2013-08-25 00:04:00,60.0,57.1,30.37,East,94,0.0,0.0,90,0.00,,,0.00,Wunderground v.1.15,2013-08-25 04:04:00,
2013-08-25 00:05:00,60.0,57.1,30.37,East,94,0.0,0.0,90,0.00,,,0.00,Wunderground v.1.15,2013-08-25 04:05:00,
2013-08-25 00:07:00,60.0,56.7,30.37,East,94,0.0,0.0,89,0.00,,,0.00,Wunderground v.1.15,2013-08-25 04:07:00,
2013-08-25 00:12:00,60.0,56.7,30.37,East,94,0.0,0.0,89,0.00,,,0.00,Wunderground v.1.15,2013-08-25 04:12:00,
2013-08-25 00:18:00,60.1,56.8,30.37,East,94,0.0,0.0,89,0.00,,,0.00,Wunderground v.1.15,2013-08-25 04:18:00,
2013-08-25 00:23:00,60.2,56.9,30.37,East,94,0.0,0.0,89,0.00,,,0.00,Wunderground v.1.15,2013-08-25 04:23:00,
2013-08-25 00:29:00,60.2,56.9,30.37,East,94,0.0,0.0,89,0.00,,,0.00,Wunderground v.1.15,2013-08-25 04:29:00,
2013-08-25 00:35:00,60.2,56.6,30.37,East,94,0.0,0.0,88,0.00,,,0.00,Wunderground v.1.15,2013-08-25 04:35:00,
2013-08-25 00:40:00,60.2,56.6,30.36,East,94,0.0,0.0,88,0.00,,,0.00,Wunderground v.1.15,2013-08-25 04:40:00,
2013-08-25 00:45:00,60.2,56.6,30.37,East,94,0.0,1.0,88,0.00,,,0.00,Wunderground v.1.15,2013-08-25 04:45:00,
2013-08-25 00:51:00,60.2,56.6,30.37,East,94,0.0,0.0,88,0.00,,,0.00,Wunderground v.1.15,2013-08-25 04:51:00,
2013-08-25 00:56:00,60.2,56.6,30.36,East,94,0.0,0.0,88,0.00,,,0.00,Wunderground v.1.15,2013-08-25 04:56:00,
2013-08-25 01:02:00,60.3,56.7,30.36,East,94,0.0,2.0,88,0.00,,,0.00,Wunderground v.1.15,2013-08-25 05:02:00,
2013-08-25 01:07:00,60.3,56.7,30.37,East,94,0.0,2.0,88,0.00,,,0.00,Wunderground v.1.15,2013-08-25 05:07:00,
2013-08-25 01:13:00,60.3,56.4,30.37,East,100,0.0,2.0,87,0.00,,,0.00,Wunderground v.1.15,2013-08-25 05:13:00,
2013-08-25 01:18:00,60.2,56.6,30.37,East,100,0.0,2.0,88,0.00,,,0.00,Wunderground v.1.15,2013-08-25 05:18:00,
2013-08-25 01:23:00,60.1,56.5,30.37,East,100,0.0,2.0,88,0.00,,,0.00,Wunderground v.1.15,2013-08-25 05:23:00,
2013-08-25 01:28:00,60.0,56.4,30.37,East,100,0.0,2.0,88,0.00,,,0.00,Wunderground v.1.15,2013-08-25 05:28:00,
2013-08-25 01:33:00,59.8,56.2,30.37,East,100,0.0,2.0,88,0.00,,,0.00,Wunderground v.1.15,2013-08-25 05:33:00,
2013-08-25 01:38:00,59.7,56.1,30.37,East,100,0.0,2.0,88,0.00,,,0.00,Wunderground v.1.15,2013-08-25 05:38:00,
2013-08-25 01:44:00,59.5,56.3,30.37,East,100,0.0,2.0,89,0.00,,,0.00,Wunderground v.1.15,2013-08-25 05:44:00,
2013-08-25 01:49:00,59.4,56.2,30.37,East,100,0.0,2.0,89,0.00,,,0.00,Wunderground v.1.15,2013-08-25 05:49:00,
2013-08-25 01:55:00,59.3,56.1,30.36,East,100,0.0,2.0,89,0.00,,,0.00,Wunderground v.1.15,2013-08-25 05:55:00,
2013-08-25 02:00:00,59.2,56.0,30.36,East,100,0.0,2.0,89,0.00,,,0.00,Wunderground v.1.15,2013-08-25 06:00:00,
2013-08-25 02:06:00,59.2,56.0,30.36,East,100,0.0,2.0,89,0.00,,,0.00,Wunderground v.1.15,2013-08-25 06:06:00,
2013-08-25 02:11:00,59.1,55.9,30.36,East,100,0.0,2.0,89,0.00,,,0.00,Wunderground v.1.15,2013-08-25 06:11:00,
2013-08-25 02:17:00,59.1,55.9,30.36,East,100,0.0,2.0,89,0.00,,,0.00,Wunderground v.1.15,2013-08-25 06:17:00,
2013-08-25 02:22:00,59.0,55.8,30.36,East,100,0.0,2.0,89,0.00,,,0.00,Wunderground v.1.15,2013-08-25 06:22:00,
2013-08-25 02:27:00,58.9,55.7,30.36,East,100,0.0,2.0,89,0.00,,,0.00,Wunderground v.1.15,2013-08-25 06:27:00,
2013-08-25 02:32:00,58.8,55.6,30.36,East,100,0.0,2.0,89,0.00,,,0.00,Wunderground v.1.15,2013-08-25 06:32:00,
2013-08-25 02:37:00,58.7,55.5,30.36,East,100,0.0,2.0,89,0.00,,,0.00,Wunderground v.1.15,2013-08-25 06:37:00,
2013-08-25 02:42:00,58.6,55.7,30.36,East,100,0.0,2.0,90,0.00,,,0.00,Wunderground v.1.15,2013-08-25 06:42:00,
2013-08-25 02:47:00,58.5,55.6,30.36,East,100,0.0,2.0,90,0.00,,,0.00,Wunderground v.1.15,2013-08-25 06:47:00,
2013-08-25 02:52:00,58.4,55.5,30.36,East,100,0.0,2.0,90,0.00,,,0.00,Wunderground v.1.15,2013-08-25 06:52:00,
2013-08-25 02:58:00,58.4,55.5,30.36,East,100,0.0,2.0,90,0.00,,,0.00,Wunderground v.1.15,2013-08-25 06:58:00,
2013-08-25 03:03:00,58.2,55.6,30.36,East,100,0.0,2.0,91,0.00,,,0.00,Wunderground v.1.15,2013-08-25 07:03:00,
2013-08-25 03:08:00,58.1,55.5,30.36,East,100,0.0,2.0,91,0.00,,,0.00,Wunderground v.1.15,2013-08-25 07:08:00,
2013-08-25 03:13:00,58.0,55.4,30.36,East,100,0.0,2.0,91,0.00,,,0.00,Wunderground v.1.15,2013-08-25 07:13:00,
2013-08-25 03:19:00,57.9,55.3,30.36,East,100,0.0,2.0,91,0.00,,,0.00,Wunderground v.1.15,2013-08-25 07:19:00,
2013-08-25 03:24:00,57.7,55.1,30.36,East,100,0.0,2.0,91,0.00,,,0.00,Wunderground v.1.15,2013-08-25 07:24:00,
2013-08-25 03:30:00,57.5,55.2,30.36,East,100,0.0,2.0,92,0.00,,,0.00,Wunderground v.1.15,2013-08-25 07:30:00,
2013-08-25 03:36:00,57.3,55.0,30.36,East,100,0.0,2.0,92,0.00,,,0.00,Wunderground v.1.15,2013-08-25 07:36:00,
2013-08-25 03:41:00,57.1,54.8,30.36,East,100,0.0,2.0,92,0.00,,,0.00,Wunderground v.1.15,2013-08-25 07:41:00,
2013-08-25 03:47:00,57.0,54.7,30.37,East,100,0.0,2.0,92,0.00,,,0.00,Wunderground v.1.15,2013-08-25 07:47:00,
2013-08-25 03:52:00,56.9,54.9,30.37,East,100,0.0,2.0,93,0.00,,,0.00,Wunderground v.1.15,2013-08-25 07:52:00,
2013-08-25 03:57:00,56.9,54.9,30.37,East,100,0.0,2.0,93,0.00,,,0.00,Wunderground v.1.15,2013-08-25 07:57:00,
2013-08-25 04:02:00,56.7,54.7,30.37,East,100,0.0,2.0,93,0.00,,,0.00,Wunderground v.1.15,2013-08-25 08:02:00,
2013-08-25 04:08:00,56.5,54.5,30.37,East,100,0.0,2.0,93,0.00,,,0.00,Wunderground v.1.15,2013-08-25 08:08:00,
2013-08-25 04:13:00,56.3,54.3,30.38,East,100,0.0,2.0,93,0.00,,,0.00,Wunderground v.1.15,2013-08-25 08:13:00,
2013-08-25 04:18:00,56.2,54.2,30.38,East,100,0.0,2.0,93,0.00,,,0.00,Wunderground v.1.15,2013-08-25 08:18:00,
2013-08-25 04:24:00,56.0,54.3,30.38,East,100,0.0,2.0,94,0.00,,,0.00,Wunderground v.1.15,2013-08-25 08:24:00,
2013-08-25 04:29:00,55.8,53.8,30.38,ESE,102,0.0,2.0,93,0.00,,,0.00,Wunderground v.1.15,2013-08-25 08:29:00,
2013-08-25 04:34:00,55.6,53.6,30.38,ESE,102,0.0,2.0,93,0.00,,,0.00,Wunderground v.1.15,2013-08-25 08:34:00,
2013-08-25 04:39:00,55.4,53.7,30.38,ESE,102,0.0,2.0,94,0.00,,,0.00,Wunderground v.1.15,2013-08-25 08:39:00,
2013-08-25 04:44:00,55.2,53.2,30.38,ESE,102,0.0,2.0,93,0.00,,,0.00,Wunderground v.1.15,2013-08-25 08:44:00,
2013-08-25 04:49:00,55.0,53.3,30.39,ESE,102,0.0,2.0,94,0.00,,,0.00,Wunderground v.1.15,2013-08-25 08:49:00,
2013-08-25 04:55:00,54.8,53.1,30.39,ESE,102,0.0,2.0,94,0.00,,,0.00,Wunderground v.1.15,2013-08-25 08:55:00,
2013-08-25 05:00:00,54.7,53.0,30.39,ESE,102,0.0,2.0,94,0.00,,,0.00,Wunderground v.1.15,2013-08-25 09:00:00,
2013-08-25 05:05:00,54.7,53.0,30.39,ESE,102,0.0,2.0,94,0.00,,,0.00,Wunderground v.1.15,2013-08-25 09:05:00,
2013-08-25 05:11:00,54.7,53.3,30.39,ESE,102,0.0,2.0,95,0.00,,,0.00,Wunderground v.1.15,2013-08-25 09:11:00,
2013-08-25 05:16:00,54.7,53.3,30.38,ESE,102,0.0,2.0,95,0.00,,,0.00,Wunderground v.1.15,2013-08-25 09:16:00,
2013-08-25 05:21:00,54.6,53.2,30.38,ESE,102,0.0,2.0,95,0.00,,,0.00,Wunderground v.1.15,2013-08-25 09:21:00,
2013-08-25 05:26:00,54.5,53.1,30.38,ESE,102,0.0,2.0,95,0.00,,,0.00,Wunderground v.1.15,2013-08-25 09:26:00,
2013-08-25 05:31:00,54.4,53.0,30.39,ESE,102,0.0,2.0,95,0.00,,,0.00,Wunderground v.1.15,2013-08-25 09:31:00,
2013-08-25 05:37:00,54.3,52.9,30.38,ESE,102,0.0,2.0,95,0.00,,,0.00,Wunderground v.1.15,2013-08-25 09:37:00,
2013-08-25 05:42:00,54.3,52.9,30.39,ESE,102,0.0,2.0,95,0.00,,,0.00,Wunderground v.1.15,2013-08-25 09:42:00,
2013-08-25 05:47:00,54.3,52.9,30.39,ESE,102,0.0,2.0,95,0.00,,,0.00,Wunderground v.1.15,2013-08-25 09:47:00,
2013-08-25 05:52:00,54.3,52.9,30.39,ESE,102,0.0,2.0,95,0.00,,,0.00,Wunderground v.1.15,2013-08-25 09:52:00,
2013-08-25 05:57:00,54.2,52.8,30.39,ESE,102,0.0,2.0,95,0.00,,,0.00,Wunderground v.1.15,2013-08-25 09:57:00,
2013-08-25 06:03:00,54.1,52.7,30.39,ESE,102,0.0,0.0,95,0.00,,,0.00,Wunderground v.1.15,2013-08-25 10:03:00,
2013-08-25 06:08:00,53.9,52.5,30.39,ESE,102,0.0,0.0,95,0.00,,,0.00,Wunderground v.1.15,2013-08-25 10:08:00,
2013-08-25 06:14:00,53.8,52.4,30.40,ESE,102,0.0,0.0,95,0.00,,,0.00,Wunderground v.1.15,2013-08-25 10:14:00,
2013-08-25 06:19:00,53.8,52.4,30.40,ESE,102,0.0,0.0,95,0.00,,,0.00,Wunderground v.1.15,2013-08-25 10:19:00,
2013-08-25 06:25:00,53.8,52.7,30.40,ESE,102,0.0,0.0,96,0.00,,,0.00,Wunderground v.1.15,2013-08-25 10:25:00,
2013-08-25 06:30:00,53.9,52.8,30.40,ESE,102,0.0,0.0,96,0.00,,,0.00,Wunderground v.1.15,2013-08-25 10:30:00,
2013-08-25 06:35:00,53.9,52.8,30.40,ESE,102,0.0,0.0,96,0.00,,,0.00,Wunderground v.1.15,2013-08-25 10:35:00,
2013-08-25 06:41:00,53.8,52.7,30.40,ESE,102,0.0,0.0,96,0.00,,,0.00,Wunderground v.1.15,2013-08-25 10:41:00,
2013-08-25 06:46:00,53.7,52.6,30.40,ESE,102,0.0,0.0,96,0.00,,,0.00,Wunderground v.1.15,2013-08-25 10:46:00,
2013-08-25 06:51:00,53.7,52.6,30.40,ESE,102,0.0,0.0,96,0.00,,,0.00,Wunderground v.1.15,2013-08-25 10:51:00,
2013-08-25 06:56:00,53.7,52.6,30.40,ESE,102,0.0,0.0,96,0.00,,,0.00,Wunderground v.1.15,2013-08-25 10:56:00,
2013-08-25 07:01:00,53.6,52.5,30.41,ESE,102,0.0,1.0,96,0.00,,,0.00,Wunderground v.1.15,2013-08-25 11:01:00,
2013-08-25 07:06:00,53.5,52.4,30.40,ESE,102,0.0,1.0,96,0.00,,,0.00,Wunderground v.1.15,2013-08-25 11:06:00,
2013-08-25 07:12:00,53.5,52.4,30.40,ESE,102,0.0,1.0,96,0.00,,,0.00,Wunderground v.1.15,2013-08-25 11:12:00,
2013-08-25 07:17:00,53.5,52.4,30.41,ESE,102,0.0,1.0,96,0.00,,,0.00,Wunderground v.1.15,2013-08-25 11:17:00,
2013-08-25 07:22:00,53.5,52.4,30.40,ESE,102,0.0,1.0,96,0.00,,,0.00,Wunderground v.1.15,2013-08-25 11:22:00,
2013-08-25 07:27:00,53.6,52.5,30.40,ESE,102,0.0,1.0,96,0.00,,,0.00,Wunderground v.1.15,2013-08-25 11:27:00,
2013-08-25 07:33:00,53.7,52.9,30.40,ESE,102,0.0,1.0,97,0.00,,,0.00,Wunderground v.1.15,2013-08-25 11:33:00,
2013-08-25 07:38:00,53.8,53.0,30.40,ESE,102,0.0,1.0,97,0.00,,,0.00,Wunderground v.1.15,2013-08-25 11:38:00,
2013-08-25 07:43:00,54.0,53.2,30.40,ESE,102,0.0,1.0,97,0.00,,,0.00,Wunderground v.1.15,2013-08-25 11:43:00,
2013-08-25 07:48:00,54.2,53.4,30.41,ESE,102,0.0,1.0,97,0.00,,,0.00,Wunderground v.1.15,2013-08-25 11:48:00,
2013-08-25 07:54:00,54.5,53.7,30.41,ESE,102,0.0,1.0,97,0.00,,,0.00,Wunderground v.1.15,2013-08-25 11:54:00,
2013-08-25 07:59:00,54.8,54.0,30.41,ESE,102,0.0,1.0,97,0.00,,,0.00,Wunderground v.1.15,2013-08-25 11:59:00,
2013-08-25 08:05:00,55.3,54.5,30.41,ESE,102,0.0,1.0,97,0.00,,,0.00,Wunderground v.1.15,2013-08-25 12:05:00,
2013-08-25 08:11:00,56.0,55.4,30.41,ESE,102,0.0,1.0,98,0.00,,,0.00,Wunderground v.1.15,2013-08-25 12:11:00,
2013-08-25 08:16:00,56.6,56.0,30.41,ESE,102,0.0,1.0,98,0.00,,,0.00,Wunderground v.1.15,2013-08-25 12:16:00,
2013-08-25 08:22:00,57.5,56.9,30.42,ESE,102,0.0,1.0,98,0.00,,,0.00,Wunderground v.1.15,2013-08-25 12:22:00,
2013-08-25 08:28:00,58.3,57.7,30.41,ESE,105,0.0,1.0,98,0.00,,,0.00,Wunderground v.1.15,2013-08-25 12:28:00,
2013-08-25 08:34:00,58.9,58.3,30.41,ESE,105,0.0,1.0,98,0.00,,,0.00,Wunderground v.1.15,2013-08-25 12:34:00,
2013-08-25 08:39:00,59.6,59.0,30.41,SE,146,0.0,1.0,98,0.00,,,0.00,Wunderground v.1.15,2013-08-25 12:39:00,
2013-08-25 08:45:00,60.4,59.3,30.41,South,179,0.0,5.0,96,0.00,,,0.00,Wunderground v.1.15,2013-08-25 12:45:00,
2013-08-25 08:51:00,61.3,59.0,30.41,South,179,1.0,1.0,92,0.00,,,0.00,Wunderground v.1.15,2013-08-25 12:51:00,
2013-08-25 08:56:00,62.3,59.0,30.41,South,179,0.0,2.0,89,0.00,,,0.00,Wunderground v.1.15,2013-08-25 12:56:00,
2013-08-25 09:02:00,63.3,59.0,30.41,South,179,0.0,1.0,86,0.00,,,0.00,Wunderground v.1.15,2013-08-25 13:02:00,
2013-08-25 09:07:00,64.1,58.8,30.41,South,179,0.0,2.0,83,0.00,,,0.00,Wunderground v.1.15,2013-08-25 13:07:00,
2013-08-25 09:13:00,64.8,59.2,30.41,South,179,0.0,0.0,82,0.00,,,0.00,Wunderground v.1.15,2013-08-25 13:13:00,
2013-08-25 09:19:00,65.5,59.9,30.41,South,179,0.0,1.0,82,0.00,,,0.00,Wunderground v.1.15,2013-08-25 13:19:00,
2013-08-25 09:25:00,66.2,59.8,30.41,South,188,1.0,4.0,80,0.00,,,0.00,Wunderground v.1.15,2013-08-25 13:25:00,
2013-08-25 09:30:00,67.0,59.9,30.41,South,182,1.0,1.0,78,0.00,,,0.00,Wunderground v.1.15,2013-08-25 13:30:00,
2013-08-25 09:36:00,67.7,60.2,30.41,South,182,0.0,1.0,77,0.00,,,0.00,Wunderground v.1.15,2013-08-25 13:36:00,
2013-08-25 09:42:00,68.5,60.3,30.41,South,183,1.0,2.0,75,0.00,,,0.00,Wunderground v.1.15,2013-08-25 13:42:00,
2013-08-25 09:47:00,69.2,60.9,30.40,SSW,200,1.0,5.0,75,0.00,,,0.00,Wunderground v.1.15,2013-08-25 13:47:00,
2013-08-25 09:53:00,69.9,60.8,30.40,SSW,194,1.0,2.0,73,0.00,,,0.00,Wunderground v.1.15,2013-08-25 13:53:00,
2013-08-25 09:58:00,70.4,60.9,30.40,SSW,194,1.0,4.0,72,0.00,,,0.00,Wunderground v.1.15,2013-08-25 13:58:00,
2013-08-25 10:04:00,70.9,61.4,30.40,SSW,193,1.0,5.0,72,0.00,,,0.00,Wunderground v.1.15,2013-08-25 14:04:00,
2013-08-25 10:10:00,71.4,61.9,30.40,SSW,200,1.0,5.0,72,0.00,,,0.00,Wunderground v.1.15,2013-08-25 14:10:00,
2013-08-25 10:16:00,71.9,62.8,30.40,SSW,202,2.0,5.0,73,0.00,,,0.00,Wunderground v.1.15,2013-08-25 14:16:00,
2013-08-25 10:21:00,72.1,61.8,30.40,WSW,244,2.0,5.0,70,0.00,,,0.00,Wunderground v.1.15,2013-08-25 14:21:00,
2013-08-25 10:27:00,72.4,62.1,30.40,SW,219,3.0,5.0,70,0.00,,,0.00,Wunderground v.1.15,2013-08-25 14:27:00,
2013-08-25 10:33:00,72.7,62.8,30.40,SW,219,4.0,5.0,71,0.00,,,0.00,Wunderground v.1.15,2013-08-25 14:33:00,
2013-08-25 10:38:00,73.0,63.0,30.40,SSW,194,3.0,5.0,71,0.00,,,0.00,Wunderground v.1.15,2013-08-25 14:38:00,
2013-08-25 10:44:00,73.2,63.2,30.40,SW,227,2.0,5.0,71,0.00,,,0.00,Wunderground v.1.15,2013-08-25 14:44:00,
2013-08-25 10:49:00,73.5,63.1,30.40,SSW,205,3.0,5.0,70,0.00,,,0.00,Wunderground v.1.15,2013-08-25 14:49:00,
2013-08-25 10:55:00,74.0,63.6,30.40,SSW,208,3.0,5.0,70,0.00,,,0.00,Wunderground v.1.15,2013-08-25 14:55:00,
2013-08-25 11:01:00,74.5,63.7,30.40,South,175,3.0,5.0,69,0.00,,,0.00,Wunderground v.1.15,2013-08-25 15:01:00,
2013-08-25 11:07:00,74.9,63.6,30.40,South,188,3.0,5.0,68,0.00,,,0.00,Wunderground v.1.15,2013-08-25 15:07:00,
2013-08-25 11:13:00,75.4,64.5,30.40,South,188,1.0,5.0,69,0.00,,,0.00,Wunderground v.1.15,2013-08-25 15:13:00,
2013-08-25 11:19:00,75.7,62.7,30.40,SW,228,2.0,6.0,64,0.00,,,0.00,Wunderground v.1.15,2013-08-25 15:19:00,
2013-08-25 11:24:00,76.1,63.9,30.40,SSW,211,3.0,5.0,66,0.00,,,0.00,Wunderground v.1.15,2013-08-25 15:24:00,
2013-08-25 11:30:00,76.2,62.7,30.40,SSW,213,3.0,3.0,63,0.00,,,0.00,Wunderground v.1.15,2013-08-25 15:30:00,
2013-08-25 11:35:00,76.5,64.3,30.40,WSW,239,2.0,5.0,66,0.00,,,0.00,Wunderground v.1.15,2013-08-25 15:35:00,
2013-08-25 11:41:00,76.8,64.1,30.40,SSW,200,2.0,5.0,65,0.00,,,0.00,Wunderground v.1.15,2013-08-25 15:41:00,
2013-08-25 11:47:00,76.8,64.1,30.39,WSW,248,2.0,6.0,65,0.00,,,0.00,Wunderground v.1.15,2013-08-25 15:47:00,
2013-08-25 11:52:00,76.7,62.7,30.39,WSW,248,3.0,5.0,62,0.00,,,0.00,Wunderground v.1.15,2013-08-25 15:52:00,
2013-08-25 11:58:00,76.9,63.3,30.40,SW,223,3.0,5.0,63,0.00,,,0.00,Wunderground v.1.15,2013-08-25 15:58:00,
2013-08-25 12:03:00,77.3,62.8,30.40,SW,225,2.0,5.0,61,0.00,,,0.00,Wunderground v.1.15,2013-08-25 16:03:00,
2013-08-25 12:08:00,77.2,62.7,30.39,WSW,250,4.0,5.0,61,0.00,,,0.00,Wunderground v.1.15,2013-08-25 16:08:00,
2013-08-25 12:14:00,77.5,62.5,30.39,WSW,237,4.0,4.0,60,0.00,,,0.00,Wunderground v.1.15,2013-08-25 16:14:00,
2013-08-25 12:19:00,78.0,62.0,30.39,SSW,194,4.0,4.0,58,0.00,,,0.00,Wunderground v.1.15,2013-08-25 16:19:00,
2013-08-25 12:25:00,78.3,62.8,30.38,SSW,200,5.0,7.0,59,0.00,,,0.00,Wunderground v.1.15,2013-08-25 16:25:00,
2013-08-25 12:31:00,78.4,63.4,30.38,SSW,205,5.0,6.0,60,0.00,,,0.00,Wunderground v.1.15,2013-08-25 16:31:00,
2013-08-25 12:36:00,78.3,62.8,30.38,SW,221,5.0,7.0,59,0.00,,,0.00,Wunderground v.1.15,2013-08-25 16:36:00,
2013-08-25 12:42:00,78.5,64.4,30.38,SSW,208,4.0,11.0,62,0.00,,,0.00,Wunderground v.1.15,2013-08-25 16:42:00,
2013-08-25 12:48:00,78.7,63.6,30.38,SSW,194,4.0,11.0,60,0.00,,,0.00,Wunderground v.1.15,2013-08-25 16:48:00,
2013-08-25 12:53:00,78.6,63.1,30.38,SW,215,4.0,10.0,59,0.00,,,0.00,Wunderground v.1.15,2013-08-25 16:53:00,
2013-08-25 12:59:00,78.6,62.6,30.38,SW,226,4.0,4.0,58,0.00,,,0.00,Wunderground v.1.15,2013-08-25 16:59:00,
2013-08-25 13:05:00,79.1,64.5,30.37,WSW,247,3.0,10.0,61,0.00,,,0.00,Wunderground v.1.15,2013-08-25 17:05:00,
2013-08-25 13:11:00,79.6,63.0,30.37,SSW,195,3.0,10.0,57,0.00,,,0.00,Wunderground v.1.15,2013-08-25 17:11:00,
2013-08-25 13:16:00,80.1,62.0,30.37,SW,221,5.0,10.0,54,0.00,,,0.00,Wunderground v.1.15,2013-08-25 17:16:00,
2013-08-25 13:22:00,80.5,63.9,30.36,WSW,240,4.0,10.0,57,0.00,,,0.00,Wunderground v.1.15,2013-08-25 17:22:00,
2013-08-25 13:27:00,80.9,64.2,30.36,SSW,205,3.0,10.0,57,0.00,,,0.00,Wunderground v.1.15,2013-08-25 17:27:00,
2013-08-25 13:32:00,81.1,64.4,30.37,WSW,258,4.0,10.0,57,0.00,,,0.00,Wunderground v.1.15,2013-08-25 17:32:00,
2013-08-25 13:37:00,80.8,63.1,30.37,WSW,246,4.0,10.0,55,0.00,,,0.00,Wunderground v.1.15,2013-08-25 17:37:00,
2013-08-25 13:43:00,80.0,63.9,30.37,SSW,209,3.0,10.0,58,0.00,,,0.00,Wunderground v.1.15,2013-08-25 17:43:00,
2013-08-25 13:49:00,79.7,64.1,30.37,SSW,210,2.0,10.0,59,0.00,,,0.00,Wunderground v.1.15,2013-08-25 17:49:00,
2013-08-25 13:55:00,79.9,61.8,30.37,SSW,200,3.0,10.0,54,0.00,,,0.00,Wunderground v.1.15,2013-08-25 17:55:00,
2013-08-25 14:01:00,79.6,61.5,30.36,West,267,4.0,10.0,54,0.00,,,0.00,Wunderground v.1.15,2013-08-25 18:01:00,
2013-08-25 14:06:00,79.8,62.7,30.36,West,261,4.0,10.0,56,0.00,,,0.00,Wunderground v.1.15,2013-08-25 18:06:00,
2013-08-25 14:12:00,80.2,62.6,30.36,WNW,288,2.0,10.0,55,0.00,,,0.00,Wunderground v.1.15,2013-08-25 18:12:00,
2013-08-25 14:18:00,81.0,63.8,30.35,SSW,205,1.0,10.0,56,0.00,,,0.00,Wunderground v.1.15,2013-08-25 18:18:00,
2013-08-25 14:24:00,81.2,61.9,30.35,SSW,198,3.0,10.0,52,0.00,,,0.00,Wunderground v.1.15,2013-08-25 18:24:00,
2013-08-25 14:29:00,81.5,63.3,30.35,WSW,254,3.0,10.0,54,0.00,,,0.00,Wunderground v.1.15,2013-08-25 18:29:00,
2013-08-25 14:35:00,81.8,62.5,30.35,SW,216,4.0,11.0,52,0.00,,,0.00,Wunderground v.1.15,2013-08-25 18:35:00,
2013-08-25 14:41:00,81.4,61.5,30.35,SW,227,4.0,10.0,51,0.00,,,0.00,Wunderground v.1.15,2013-08-25 18:41:00,
2013-08-25 14:47:00,81.5,64.3,30.35,SW,236,3.0,12.0,56,0.00,,,0.00,Wunderground v.1.15,2013-08-25 18:47:00,
2013-08-25 14:52:00,81.8,62.5,30.34,SSW,205,4.0,10.0,52,0.00,,,0.00,Wunderground v.1.15,2013-08-25 18:52:00,
2013-08-25 14:58:00,82.1,62.7,30.34,SW,234,4.0,10.0,52,0.00,,,0.00,Wunderground v.1.15,2013-08-25 18:58:00,
2013-08-25 15:04:00,82.2,63.4,30.34,SW,228,3.0,7.0,53,0.00,,,0.00,Wunderground v.1.15,2013-08-25 19:04:00,
2013-08-25 15:10:00,82.2,63.9,30.34,WSW,244,3.0,3.0,54,0.00,,,0.00,Wunderground v.1.15,2013-08-25 19:10:00,
2013-08-25 15:16:00,82.5,65.7,30.33,WNW,303,3.0,3.0,57,0.00,,,0.00,Wunderground v.1.15,2013-08-25 19:16:00,
2013-08-25 15:22:00,82.5,64.7,30.33,WSW,243,2.0,2.0,55,0.00,,,0.00,Wunderground v.1.15,2013-08-25 19:22:00,
2013-08-25 15:27:00,82.4,66.6,30.33,North,11,1.0,2.0,59,0.00,,,0.00,Wunderground v.1.15,2013-08-25 19:27:00,
2013-08-25 15:33:00,82.5,65.2,30.33,North,9,1.0,1.0,56,0.00,,,0.00,Wunderground v.1.15,2013-08-25 19:33:00,
2013-08-25 15:39:00,82.6,66.8,30.33,North,360,1.0,1.0,59,0.00,,,0.00,Wunderground v.1.15,2013-08-25 19:39:00,
2013-08-25 15:44:00,82.7,65.9,30.32,SW,236,1.0,4.0,57,0.00,,,0.00,Wunderground v.1.15,2013-08-25 19:44:00,
2013-08-25 15:50:00,82.5,65.2,30.33,WSW,237,2.0,2.0,56,0.00,,,0.00,Wunderground v.1.15,2013-08-25 19:50:00,
2013-08-25 15:56:00,82.1,66.8,30.32,West,272,2.0,5.0,60,0.00,,,0.00,Wunderground v.1.15,2013-08-25 19:56:00,
2013-08-25 16:01:00,82.0,66.7,30.32,West,265,2.0,15.0,60,0.00,,,0.00,Wunderground v.1.15,2013-08-25 20:01:00,
2013-08-25 16:07:00,82.0,66.3,30.32,NNE,13,1.0,15.0,59,0.00,,,0.00,Wunderground v.1.15,2013-08-25 20:07:00,
2013-08-25 16:12:00,82.2,66.9,30.31,NE,54,1.0,15.0,60,0.00,,,0.00,Wunderground v.1.15,2013-08-25 20:12:00,
2013-08-25 16:18:00,82.3,66.0,30.31,NNE,26,0.0,15.0,58,0.00,,,0.00,Wunderground v.1.15,2013-08-25 20:18:00,
2013-08-25 16:23:00,82.4,65.1,30.31,SSW,207,1.0,15.0,56,0.00,,,0.00,Wunderground v.1.15,2013-08-25 20:23:00,
2013-08-25 16:29:00,82.0,65.3,30.31,WSW,244,3.0,15.0,57,0.00,,,0.00,Wunderground v.1.15,2013-08-25 20:29:00,
2013-08-25 16:35:00,81.6,65.4,30.31,WSW,258,3.0,15.0,58,0.00,,,0.00,Wunderground v.1.15,2013-08-25 20:35:00,
2013-08-25 16:40:00,81.5,65.8,30.31,WNW,288,2.0,2.0,59,0.00,,,0.00,Wunderground v.1.15,2013-08-25 20:40:00,
2013-08-25 16:46:00,81.5,66.3,30.31,NW,311,1.0,15.0,60,0.00,,,0.00,Wunderground v.1.15,2013-08-25 20:46:00,
2013-08-25 16:52:00,81.6,67.3,30.31,WNW,289,1.0,15.0,62,0.00,,,0.00,Wunderground v.1.15,2013-08-25 20:52:00,
2013-08-25 16:58:00,81.9,66.2,30.31,WNW,282,1.0,15.0,59,0.00,,,0.00,Wunderground v.1.15,2013-08-25 20:58:00,
2013-08-25 17:03:00,81.9,66.6,30.31,NW,325,1.0,15.0,60,0.00,,,0.00,Wunderground v.1.15,2013-08-25 21:03:00,
2013-08-25 17:09:00,81.8,65.1,30.30,West,261,1.0,15.0,57,0.00,,,0.00,Wunderground v.1.15,2013-08-25 21:09:00,
2013-08-25 17:15:00,81.6,65.9,30.29,West,261,1.0,15.0,59,0.00,,,0.00,Wunderground v.1.15,2013-08-25 21:15:00,
2013-08-25 17:21:00,81.5,65.8,30.29,SW,233,1.0,15.0,59,0.00,,,0.00,Wunderground v.1.15,2013-08-25 21:21:00,
2013-08-25 17:27:00,81.2,64.5,30.28,SSW,208,2.0,15.0,57,0.00,,,0.00,Wunderground v.1.15,2013-08-25 21:27:00,
2013-08-25 17:33:00,81.4,65.7,30.29,NW,324,1.0,15.0,59,0.00,,,0.00,Wunderground v.1.15,2013-08-25 21:33:00,
2013-08-25 17:38:00,81.6,65.4,30.29,SW,233,1.0,15.0,58,0.00,,,0.00,Wunderground v.1.15,2013-08-25 21:38:00,
2013-08-25 17:44:00,81.7,63.4,30.29,SSW,200,1.0,15.0,54,0.00,,,0.00,Wunderground v.1.15,2013-08-25 21:44:00,
2013-08-25 17:50:00,81.5,62.7,30.29,SSW,199,3.0,15.0,53,0.00,,,0.00,Wunderground v.1.15,2013-08-25 21:50:00,
2013-08-25 17:55:00,81.3,63.1,30.29,South,175,4.0,15.0,54,0.00,,,0.00,Wunderground v.1.15,2013-08-25 21:55:00,
2013-08-25 18:01:00,81.1,61.8,30.29,SSW,209,5.0,5.0,52,0.00,,,0.00,Wunderground v.1.15,2013-08-25 22:01:00,
2013-08-25 18:06:00,81.1,61.8,30.30,SSW,204,5.0,6.0,52,0.00,,,0.00,Wunderground v.1.15,2013-08-25 22:06:00,
2013-08-25 18:11:00,81.0,62.3,30.29,SSW,205,4.0,4.0,53,0.00,,,0.00,Wunderground v.1.15,2013-08-25 22:11:00,
2013-08-25 18:17:00,81.0,62.8,30.29,SSW,205,3.0,4.0,54,0.00,,,0.00,Wunderground v.1.15,2013-08-25 22:17:00,
2013-08-25 18:23:00,80.9,62.7,30.29,WSW,248,4.0,6.0,54,0.00,,,0.00,Wunderground v.1.15,2013-08-25 22:23:00,
2013-08-25 18:29:00,80.7,62.5,30.29,South,179,3.0,6.0,54,0.00,,,0.00,Wunderground v.1.15,2013-08-25 22:29:00,
2013-08-25 18:34:00,80.6,62.4,30.28,SSW,204,3.0,10.0,54,0.00,,,0.00,Wunderground v.1.15,2013-08-25 22:34:00,
2013-08-25 18:40:00,80.4,62.8,30.28,SSW,205,3.0,4.0,55,0.00,,,0.00,Wunderground v.1.15,2013-08-25 22:40:00,
2013-08-25 18:46:00,80.1,63.0,30.28,South,187,4.0,6.0,56,0.00,,,0.00,Wunderground v.1.15,2013-08-25 22:46:00,
2013-08-25 18:52:00,79.9,62.8,30.28,South,182,3.0,4.0,56,0.00,,,0.00,Wunderground v.1.15,2013-08-25 22:52:00,
2013-08-25 18:58:00,79.6,63.0,30.28,SSW,211,4.0,5.0,57,0.00,,,0.00,Wunderground v.1.15,2013-08-25 22:58:00,
2013-08-25 19:03:00,79.3,63.2,30.28,SSW,193,3.0,10.0,58,0.00,,,0.00,Wunderground v.1.15,2013-08-25 23:03:00,
2013-08-25 19:09:00,79.1,63.1,30.28,SSW,198,3.0,10.0,58,0.00,,,0.00,Wunderground v.1.15,2013-08-25 23:09:00,
2013-08-25 19:15:00,78.8,63.3,30.28,South,177,3.0,10.0,59,0.00,,,0.00,Wunderground v.1.15,2013-08-25 23:15:00,
2013-08-25 19:20:00,78.5,63.0,30.28,SSW,194,3.0,10.0,59,0.00,,,0.00,Wunderground v.1.15,2013-08-25 23:20:00,
2013-08-25 19:26:00,78.2,62.7,30.28,SSW,192,3.0,10.0,59,0.00,,,0.00,Wunderground v.1.15,2013-08-25 23:26:00,
2013-08-25 19:32:00,77.9,63.4,30.27,South,182,2.0,10.0,61,0.00,,,0.00,Wunderground v.1.15,2013-08-25 23:32:00,
2013-08-25 19:38:00,77.5,63.0,30.27,SSW,194,1.0,10.0,61,0.00,,,0.00,Wunderground v.1.15,2013-08-25 23:38:00,
2013-08-25 19:44:00,77.2,62.7,30.28,SSW,198,2.0,10.0,61,0.00,,,0.00,Wunderground v.1.15,2013-08-25 23:44:00,
2013-08-25 19:50:00,76.8,62.8,30.28,SSW,197,1.0,10.0,62,0.00,,,0.00,Wunderground v.1.15,2013-08-25 23:50:00,
2013-08-25 19:55:00,76.5,63.0,30.28,SSW,196,1.0,10.0,63,0.00,,,0.00,Wunderground v.1.15,2013-08-25 23:55:00,
2013-08-25 20:01:00,76.1,63.0,30.28,SSW,196,1.0,2.0,64,0.00,,,0.00,Wunderground v.1.15,2013-08-26 00:01:00,
2013-08-25 20:07:00,75.7,62.7,30.28,South,184,1.0,10.0,64,0.00,,,0.00,Wunderground v.1.15,2013-08-26 00:07:00,
2013-08-25 20:12:00,75.4,62.8,30.28,South,184,1.0,10.0,65,0.00,,,0.00,Wunderground v.1.15,2013-08-26 00:12:00,
2013-08-25 20:18:00,75.0,62.9,30.28,South,184,0.0,10.0,66,0.00,,,0.00,Wunderground v.1.15,2013-08-26 00:18:00,
2013-08-25 20:24:00,74.6,62.5,30.28,South,184,0.0,10.0,66,0.00,,,0.00,Wunderground v.1.15,2013-08-26 00:24:00,
2013-08-25 20:29:00,74.2,62.5,30.28,South,184,0.0,10.0,67,0.00,,,0.00,Wunderground v.1.15,2013-08-26 00:29:00,
2013-08-25 20:35:00,73.8,62.6,30.28,South,184,0.0,10.0,68,0.00,,,0.00,Wunderground v.1.15,2013-08-26 00:35:00,
2013-08-25 20:41:00,73.3,62.1,30.29,South,184,0.0,10.0,68,0.00,,,0.00,Wunderground v.1.15,2013-08-26 00:41:00,
2013-08-25 20:46:00,72.9,62.5,30.28,South,184,0.0,10.0,70,0.00,,,0.00,Wunderground v.1.15,2013-08-26 00:46:00,
2013-08-25 20:52:00,72.4,62.5,30.28,South,184,0.0,10.0,71,0.00,,,0.00,Wunderground v.1.15,2013-08-26 00:52:00,
2013-08-25 20:57:00,71.8,62.3,30.29,South,184,0.0,10.0,72,0.00,,,0.00,Wunderground v.1.15,2013-08-26 00:57:00,
2013-08-25 21:03:00,71.1,62.0,30.29,South,184,0.0,0.0,73,0.00,,,0.00,Wunderground v.1.15,2013-08-26 01:03:00,
2013-08-25 21:09:00,70.5,62.2,30.29,South,184,0.0,0.0,75,0.00,,,0.00,Wunderground v.1.15,2013-08-26 01:09:00,
2013-08-25 21:14:00,70.1,62.2,30.29,South,184,0.0,0.0,76,0.00,,,0.00,Wunderground v.1.15,2013-08-26 01:14:00,
2013-08-25 21:19:00,69.6,61.7,30.29,South,184,0.0,0.0,76,0.00,,,0.00,Wunderground v.1.15,2013-08-26 01:19:00,
2013-08-25 21:25:00,69.0,61.9,30.29,South,184,0.0,0.0,78,0.00,,,0.00,Wunderground v.1.15,2013-08-26 01:25:00,
2013-08-25 21:30:00,68.4,61.6,30.29,South,184,0.0,0.0,79,0.00,,,0.00,Wunderground v.1.15,2013-08-26 01:30:00,
2013-08-25 21:35:00,67.9,61.5,30.29,South,184,0.0,0.0,80,0.00,,,0.00,Wunderground v.1.15,2013-08-26 01:35:00,
2013-08-25 21:41:00,67.5,61.1,30.29,South,184,0.0,0.0,80,0.00,,,0.00,Wunderground v.1.15,2013-08-26 01:41:00,
2013-08-25 21:47:00,67.4,61.4,30.29,South,184,0.0,0.0,81,0.00,,,0.00,Wunderground v.1.15,2013-08-26 01:47:00,
2013-08-25 21:52:00,67.4,61.4,30.30,South,184,0.0,0.0,81,0.00,,,0.00,Wunderground v.1.15,2013-08-26 01:52:00,
2013-08-25 21:58:00,67.4,61.4,30.30,South,184,0.0,0.0,81,0.00,,,0.00,Wunderground v.1.15,2013-08-26 01:58:00,
2013-08-25 22:03:00,67.1,61.4,30.31,South,184,0.0,1.0,82,0.00,,,0.00,Wunderground v.1.15,2013-08-26 02:03:00,
2013-08-25 22:09:00,66.7,61.4,30.31,South,184,0.0,1.0,83,0.00,,,0.00,Wunderground v.1.15,2013-08-26 02:09:00,
2013-08-25 22:14:00,66.5,61.2,30.31,South,184,0.0,1.0,83,0.00,,,0.00,Wunderground v.1.15,2013-08-26 02:14:00,
2013-08-25 22:19:00,66.2,60.9,30.31,South,184,0.0,1.0,83,0.00,,,0.00,Wunderground v.1.15,2013-08-26 02:19:00,
2013-08-25 22:24:00,66.0,60.7,30.30,South,184,0.0,1.0,83,0.00,,,0.00,Wunderground v.1.15,2013-08-26 02:24:00,
2013-08-25 22:30:00,65.7,60.7,30.30,South,184,0.0,1.0,84,0.00,,,0.00,Wunderground v.1.15,2013-08-26 02:30:00,
2013-08-25 22:35:00,65.3,60.7,30.30,South,184,0.0,1.0,85,0.00,,,0.00,Wunderground v.1.15,2013-08-26 02:35:00,
2013-08-25 22:41:00,65.1,60.8,30.30,South,184,0.0,1.0,86,0.00,,,0.00,Wunderground v.1.15,2013-08-26 02:41:00,
2013-08-25 22:47:00,65.1,60.5,30.30,South,184,0.0,1.0,85,0.00,,,0.00,Wunderground v.1.15,2013-08-26 02:47:00,
2013-08-25 22:53:00,65.5,60.5,30.30,South,184,0.0,1.0,84,0.00,,,0.00,Wunderground v.1.15,2013-08-26 02:53:00,
2013-08-25 22:58:00,65.8,60.8,30.30,South,184,0.0,1.0,84,0.00,,,0.00,Wunderground v.1.15,2013-08-26 02:58:00,
2013-08-25 23:03:00,66.0,60.7,30.30,South,184,0.0,1.0,83,0.00,,,0.00,Wunderground v.1.15,2013-08-26 03:03:00,
2013-08-25 23:09:00,66.2,60.5,30.30,South,184,0.0,1.0,82,0.00,,,0.00,Wunderground v.1.15,2013-08-26 03:09:00,
2013-08-25 23:14:00,66.5,60.8,30.30,South,184,0.0,1.0,82,0.00,,,0.00,Wunderground v.1.15,2013-08-26 03:14:00,
2013-08-25 23:20:00,66.6,60.9,30.30,South,184,0.0,1.0,82,0.00,,,0.00,Wunderground v.1.15,2013-08-26 03:20:00,
2013-08-25 23:25:00,66.5,60.8,30.30,South,184,0.0,1.0,82,0.00,,,0.00,Wunderground v.1.15,2013-08-26 03:25:00,
2013-08-25 23:31:00,66.6,60.9,30.30,South,184,0.0,1.0,82,0.00,,,0.00,Wunderground v.1.15,2013-08-26 03:31:00,
2013-08-25 23:36:00,66.6,60.9,30.30,South,184,0.0,1.0,82,0.00,,,0.00,Wunderground v.1.15,2013-08-26 03:36:00,
2013-08-25 23:41:00,66.5,60.8,30.29,South,184,0.0,1.0,82,0.00,,,0.00,Wunderground v.1.15,2013-08-26 03:41:00,
2013-08-25 23:46:00,66.5,60.8,30.29,South,184,0.0,1.0,82,0.00,,,0.00,Wunderground v.1.15,2013-08-26 03:46:00,
2013-08-25 23:51:00,66.4,60.7,30.29,South,184,0.0,1.0,82,0.00,,,0.00,Wunderground v.1.15,2013-08-26 03:51:00,
2013-08-25 23:56:00,66.4,60.7,30.29,South,184,0.0,1.0,82,0.00,,,0.00,Wunderground v.1.15,2013-08-26 03:56:00,